Time,TemperatureF,DewpointF,PressureIn,WindDirection,WindDirectionDegrees,WindSpeedMPH,WindSpeedGustMPH,Humidity,HourlyPrecipIn,Conditions,Clouds,dailyrainin,SoftwareType,DateUTC
2013-07-31 00:21:00,60.0,41.0,-100.00,South,172,0.0,1.0,49,-99.99,,,-99.99,,2013-07-31 07:21:00,
2013-07-31 00:52:00,60.0,41.0,-100.00,South,172,0.0,1.0,49,-99.99,,,-99.99,,2013-07-31 07:52:00,
2013-07-31 01:02:00,60.0,41.0,-100.00,South,172,0.0,1.0,49,-99.99,,,-99.99,,2013-07-31 08:02:00,
2013-07-31 01:12:00,60.0,41.0,-100.00,South,172,0.0,1.0,49,-99.99,,,-99.99,,2013-07-31 08:12:00,
2013-07-31 03:02:00,61.0,42.0,-100.00,South,174,0.0,2.0,49,-99.99,,,-99.99,,2013-07-31 10:02:00,
2013-07-31 03:12:00,61.0,42.0,-100.00,South,174,0.0,2.0,49,-99.99,,,-99.99,,2013-07-31 10:12:00,
2013-07-31 03:20:00,60.0,44.0,-100.00,SSE,165,0.0,1.0,54,-99.99,,,-99.99,,2013-07-31 10:20:00,
2013-07-31 03:22:00,61.0,42.0,-100.00,South,174,0.0,2.0,49,-99.99,,,-99.99,,2013-07-31 10:22:00,
2013-07-31 03:32:00,61.0,42.0,-100.00,South,174,0.0,2.0,49,-99.99,,,-99.99,,2013-07-31 10:32:00,
2013-07-31 03:52:00,60.0,44.0,-100.00,SSE,165,0.0,1.0,54,-99.99,,,-99.99,,2013-07-31 10:52:00,
2013-07-31 04:03:00,60.0,44.0,-100.00,SSE,165,0.0,1.0,54,-99.99,,,-99.99,,2013-07-31 11:03:00,
2013-07-31 04:12:00,60.0,44.0,-100.00,SSE,165,0.0,1.0,54,-99.99,,,-99.99,,2013-07-31 11:12:00,
2013-07-31 04:43:00,60.0,43.0,-100.00,SSE,165,0.0,1.0,54,-99.99,,,-99.99,,2013-07-31 11:43:00,
2013-07-31 04:53:00,60.0,43.0,-100.00,SSE,165,0.0,1.0,54,-99.99,,,-99.99,,2013-07-31 11:53:00,
2013-07-31 05:02:00,60.0,43.0,-100.00,SSE,165,0.0,1.0,54,-99.99,,,-99.99,,2013-07-31 12:02:00,
2013-07-31 05:22:00,59.0,44.0,-100.00,SSE,165,0.0,1.0,56,-99.99,,,-99.99,,2013-07-31 12:22:00,
2013-07-31 05:32:00,59.0,44.0,-100.00,SSE,165,0.0,1.0,56,-99.99,,,-99.99,,2013-07-31 12:32:00,
2013-07-31 05:43:00,59.0,44.0,-100.00,SSE,165,0.0,1.0,56,-99.99,,,-99.99,,2013-07-31 12:43:00,
2013-07-31 07:22:00,57.0,39.0,-100.00,SSE,165,1.0,2.0,50,-99.99,,,-99.99,,2013-07-31 14:22:00,
2013-07-31 07:34:00,57.0,39.0,-100.00,SSE,165,1.0,2.0,50,-99.99,,,-99.99,,2013-07-31 14:34:00,
2013-07-31 07:43:00,58.0,39.0,-100.00,SSE,160,1.0,2.0,50,-99.99,,,-99.99,,2013-07-31 14:43:00,
2013-07-31 07:53:00,58.0,39.0,-100.00,SSE,160,1.0,2.0,50,-99.99,,,-99.99,,2013-07-31 14:53:00,
2013-07-31 08:44:00,62.0,43.0,-100.00,SW,236,0.0,5.0,50,-99.99,,,-99.99,,2013-07-31 15:44:00,
2013-07-31 08:53:00,62.0,43.0,-100.00,SW,236,0.0,5.0,50,-99.99,,,-99.99,,2013-07-31 15:53:00,
2013-07-31 09:02:00,62.0,43.0,-100.00,SW,236,0.0,5.0,50,-99.99,,,-99.99,,2013-07-31 16:02:00,
2013-07-31 09:21:00,67.0,42.0,-100.00,NNW,343,1.0,6.0,40,-99.99,,,-99.99,,2013-07-31 16:21:00,
2013-07-31 09:52:00,67.0,42.0,-100.00,NNW,343,1.0,6.0,40,-99.99,,,-99.99,,2013-07-31 16:52:00,
2013-07-31 10:02:00,67.0,42.0,-100.00,NNW,343,1.0,6.0,40,-99.99,,,-99.99,,2013-07-31 17:02:00,
2013-07-31 10:12:00,67.0,42.0,-100.00,NNW,343,1.0,6.0,40,-99.99,,,-99.99,,2013-07-31 17:12:00,
2013-07-31 11:32:00,72.0,39.0,-100.00,NNE,32,3.0,7.0,30,-99.99,,,-99.99,,2013-07-31 18:32:00,
2013-07-31 11:43:00,74.0,39.0,-100.00,NNE,23,3.0,7.0,29,-99.99,,,-99.99,,2013-07-31 18:43:00,
2013-07-31 11:52:00,74.0,39.0,-100.00,NNE,23,3.0,7.0,29,-99.99,,,-99.99,,2013-07-31 18:52:00,
2013-07-31 12:02:00,74.0,39.0,-100.00,NE,37,4.0,7.0,29,-99.99,,,-99.99,,2013-07-31 19:02:00,
2013-07-31 12:12:00,74.0,39.0,-100.00,NE,37,4.0,7.0,29,-99.99,,,-99.99,,2013-07-31 19:12:00,
2013-07-31 12:32:00,74.0,46.0,-100.00,North,8,3.0,8.0,38,-99.99,,,-99.99,,2013-07-31 19:32:00,
2013-07-31 12:52:00,75.0,41.0,-100.00,NE,34,3.0,7.0,29,-99.99,,,-99.99,,2013-07-31 19:52:00,
2013-07-31 13:02:00,75.0,41.0,-100.00,NE,34,3.0,7.0,29,-99.99,,,-99.99,,2013-07-31 20:02:00,
2013-07-31 13:12:00,75.0,41.0,-100.00,NE,34,3.0,7.0,29,-99.99,,,-99.99,,2013-07-31 20:12:00,
2013-07-31 13:22:00,75.0,41.0,-100.00,NE,34,3.0,7.0,29,-99.99,,,-99.99,,2013-07-31 20:22:00,
2013-07-31 13:32:00,77.0,42.0,-100.00,North,11,5.0,10.0,29,-99.99,,,-99.99,,2013-07-31 20:32:00,
2013-07-31 13:43:00,75.0,42.0,-100.00,NE,40,4.0,7.0,31,-99.99,,,-99.99,,2013-07-31 20:43:00,
2013-07-31 13:53:00,75.0,42.0,-100.00,NE,40,4.0,7.0,31,-99.99,,,-99.99,,2013-07-31 20:53:00,
2013-07-31 14:02:00,77.0,42.0,-100.00,North,11,5.0,10.0,29,-99.99,,,-99.99,,2013-07-31 21:02:00,
2013-07-31 14:12:00,77.0,42.0,-100.00,North,11,5.0,10.0,29,-99.99,,,-99.99,,2013-07-31 21:12:00,
2013-07-31 14:22:00,77.0,42.0,-100.00,North,11,5.0,10.0,29,-99.99,,,-99.99,,2013-07-31 21:22:00,
2013-07-31 14:53:00,77.0,43.0,-100.00,NNE,25,3.0,9.0,29,-99.99,,,-99.99,,2013-07-31 21:53:00,
2013-07-31 15:02:00,76.0,42.0,-100.00,NNE,14,4.0,9.0,29,-99.99,,,-99.99,,2013-07-31 22:02:00,
2013-07-31 15:12:00,76.0,42.0,-100.00,NNE,14,4.0,9.0,29,-99.99,,,-99.99,,2013-07-31 22:12:00,
2013-07-31 15:32:00,75.0,41.0,-100.00,NNE,28,4.0,8.0,28,-99.99,,,-99.99,,2013-07-31 22:32:00,
2013-07-31 15:53:00,77.0,40.0,-100.00,NNE,21,4.0,9.0,26,-99.99,,,-99.99,,2013-07-31 22:53:00,
2013-07-31 16:02:00,75.0,39.0,-100.00,NNE,28,5.0,11.0,28,-99.99,,,-99.99,,2013-07-31 23:02:00,
2013-07-31 16:11:00,75.0,39.0,-100.00,NNE,28,5.0,11.0,28,-99.99,,,-99.99,,2013-07-31 23:11:00,
2013-07-31 16:22:00,75.0,39.0,-100.00,NNE,28,5.0,11.0,28,-99.99,,,-99.99,,2013-07-31 23:22:00,
2013-07-31 16:42:00,75.0,40.0,-100.00,NNE,21,4.0,9.0,28,-99.99,,,-99.99,,2013-07-31 23:42:00,
2013-07-31 16:52:00,77.0,38.0,-100.00,North,8,4.0,8.0,25,-99.99,,,-99.99,,2013-07-31 23:52:00,
2013-07-31 17:02:00,77.0,38.0,-100.00,North,8,4.0,8.0,25,-99.99,,,-99.99,,2013-08-01 00:02:00,
2013-07-31 17:22:00,75.0,38.0,-100.00,NNE,20,3.0,7.0,27,-99.99,,,-99.99,,2013-08-01 00:22:00,
2013-07-31 17:32:00,75.0,38.0,-100.00,North,10,3.0,7.0,27,-99.99,,,-99.99,,2013-08-01 00:32:00,
2013-07-31 17:43:00,75.0,39.0,-100.00,North,10,3.0,7.0,28,-99.99,,,-99.99,,2013-08-01 00:43:00,
2013-07-31 17:52:00,76.0,39.0,-100.00,North,6,3.0,6.0,26,-99.99,,,-99.99,,2013-08-01 00:52:00,
2013-07-31 18:02:00,76.0,39.0,-100.00,North,6,3.0,6.0,26,-99.99,,,-99.99,,2013-08-01 01:02:00,
2013-07-31 18:22:00,74.0,39.0,-100.00,NNE,18,3.0,7.0,28,-99.99,,,-99.99,,2013-08-01 01:22:00,
2013-07-31 18:32:00,74.0,40.0,-100.00,North,357,2.0,8.0,29,-99.99,,,-99.99,,2013-08-01 01:32:00,
2013-07-31 18:42:00,74.0,40.0,-100.00,North,357,2.0,8.0,29,-99.99,,,-99.99,,2013-08-01 01:42:00,
2013-07-31 18:53:00,74.0,40.0,-100.00,North,357,2.0,8.0,29,-99.99,,,-99.99,,2013-08-01 01:53:00,
2013-07-31 19:02:00,74.0,40.0,-100.00,North,357,2.0,8.0,29,-99.99,,,-99.99,,2013-08-01 02:02:00,
2013-07-31 19:43:00,69.0,40.0,-100.00,North,353,1.0,4.0,34,-99.99,,,-99.99,,2013-08-01 02:43:00,
2013-07-31 19:52:00,69.0,40.0,-100.00,North,353,1.0,4.0,34,-99.99,,,-99.99,,2013-08-01 02:52:00,
2013-07-31 20:12:00,68.0,40.0,-100.00,North,357,2.0,7.0,36,-99.99,,,-99.99,,2013-08-01 03:12:00,
2013-07-31 20:22:00,68.0,40.0,-100.00,North,357,2.0,7.0,36,-99.99,,,-99.99,,2013-08-01 03:22:00,
2013-07-31 20:32:00,68.0,40.0,-100.00,North,357,2.0,7.0,36,-99.99,,,-99.99,,2013-08-01 03:32:00,
2013-07-31 21:02:00,64.0,40.0,-100.00,North,-999,-999.0,-999.0,40,-99.99,,,-99.99,,2013-08-01 04:02:00,
2013-07-31 21:20:00,62.0,39.0,-100.00,South,179,1.0,3.0,41,-99.99,,,-99.99,,2013-08-01 04:20:00,
2013-07-31 21:22:00,64.0,40.0,-100.00,North,-999,-999.0,-999.0,40,-99.99,,,-99.99,,2013-08-01 04:22:00,
2013-07-31 21:33:00,64.0,40.0,-100.00,North,-999,-999.0,-999.0,40,-99.99,,,-99.99,,2013-08-01 04:33:00,
2013-07-31 22:02:00,62.0,39.0,-100.00,South,179,1.0,3.0,41,-99.99,,,-99.99,,2013-08-01 05:02:00,
2013-07-31 22:13:00,62.0,39.0,-100.00,South,179,1.0,3.0,41,-99.99,,,-99.99,,2013-08-01 05:13:00,
2013-07-31 22:33:00,58.0,38.0,-100.00,SE,137,1.0,4.0,47,-99.99,,,-99.99,,2013-08-01 05:33:00,
2013-07-31 22:43:00,58.0,38.0,-100.00,SE,137,1.0,4.0,47,-99.99,,,-99.99,,2013-08-01 05:43:00,
2013-07-31 22:53:00,58.0,38.0,-100.00,SE,137,1.0,4.0,47,-99.99,,,-99.99,,2013-08-01 05:53:00,
2013-07-31 23:02:00,58.0,38.0,-100.00,SE,137,1.0,4.0,47,-99.99,,,-99.99,,2013-08-01 06:02:00,
2013-07-31 23:30:00,55.0,37.0,-100.00,SSE,150,0.0,2.0,51,-99.99,,,-99.99,,2013-08-01 06:30:00,
2013-07-31 23:53:00,55.0,37.0,-100.00,SSE,162,0.0,2.0,51,-99.99,,,-99.99,,2013-08-01 06:53:00,